TimeCST,TemperatureF,Dew PointF,Humidity,Sea Level PressureIn,VisibilityMPH,Wind Direction,Wind SpeedMPH,Gust SpeedMPH,PrecipitationIn,Events,Conditions,WindDirDegrees,DateUTC
12:53 AM,27.0,26.1,96,29.78,9.0,Calm,Calm,-,N/A,,Clear,0,2013-12-19 06:53:00
1:53 AM,25.0,23.0,92,29.79,9.0,NNW,3.5,-,N/A,,Clear,340,2013-12-19 07:53:00
2:53 AM,24.1,23.0,96,29.81,9.0,NNE,6.9,-,N/A,,Clear,20,2013-12-19 08:53:00
3:53 AM,32.0,27.0,82,29.81,10.0,NNE,9.2,-,N/A,,Clear,20,2013-12-19 09:53:00
4:53 AM,30.0,26.1,85,29.83,10.0,North,5.8,-,N/A,,Clear,10,2013-12-19 10:53:00
5:53 AM,28.0,25.0,88,29.84,10.0,NNE,9.2,-,N/A,,Clear,20,2013-12-19 11:53:00
6:53 AM,28.9,25.0,85,29.85,10.0,North,8.1,-,N/A,,Clear,10,2013-12-19 12:53:00
7:53 AM,28.9,25.0,85,29.87,10.0,NNE,13.8,-,N/A,,Clear,20,2013-12-19 13:53:00
8:53 AM,28.9,25.0,85,29.89,10.0,NNE,12.7,-,N/A,,Clear,30,2013-12-19 14:53:00
9:53 AM,30.0,26.1,85,29.90,10.0,NNE,15.0,-,N/A,,Clear,30,2013-12-19 15:53:00
10:53 AM,30.9,27.0,85,29.88,9.0,NE,16.1,-,N/A,,Clear,50,2013-12-19 16:53:00
11:53 AM,32.0,28.0,85,29.87,10.0,NE,13.8,-,N/A,,Clear,50,2013-12-19 17:53:00
12:53 PM,33.1,28.0,82,29.82,10.0,NE,18.4,-,N/A,,Clear,50,2013-12-19 18:53:00
1:53 PM,33.1,28.0,82,29.82,10.0,ENE,15.0,-,N/A,,Scattered Clouds,70,2013-12-19 19:53:00
2:53 PM,32.0,28.0,85,29.81,10.0,NE,18.4,-,N/A,,Clear,50,2013-12-19 20:53:00
3:33 PM,32.0,28.0,85,29.80,10.0,ENE,11.5,-,N/A,,Mostly Cloudy,60,2013-12-19 21:33:00
3:53 PM,32.0,27.0,82,29.84,10.0,NE,15.0,-,N/A,,Overcast,50,2013-12-19 21:53:00
4:53 PM,30.9,26.1,82,29.83,10.0,NE,13.8,-,N/A,,Overcast,50,2013-12-19 22:53:00
5:53 PM,30.0,26.1,85,29.84,7.0,ENE,15.0,-,N/A,,Overcast,60,2013-12-19 23:53:00
6:31 PM,28.9,27.0,92,29.79,5.0,ENE,13.8,-,N/A,,Overcast,60,2013-12-20 00:31:00
6:53 PM,28.9,26.1,89,29.82,6.0,ENE,13.8,-,N/A,,Overcast,60,2013-12-20 00:53:00
7:53 PM,28.9,26.1,89,29.83,6.0,ENE,15.0,-,N/A,,Overcast,60,2013-12-20 01:53:00
8:53 PM,28.0,26.1,92,29.82,4.0,NE,12.7,-,N/A,,Overcast,50,2013-12-20 02:53:00
9:02 PM,28.0,26.1,92,29.78,3.0,NE,15.0,-,0.00,Rain,Light Freezing Rain,50,2013-12-20 03:02:00
9:28 PM,28.0,26.1,92,29.79,3.0,NE,12.7,-,0.00,,Overcast,40,2013-12-20 03:28:00
9:42 PM,28.0,26.1,92,29.79,2.5,NE,13.8,-,0.00,Rain,Light Freezing Rain,50,2013-12-20 03:42:00
9:53 PM,28.0,26.1,92,29.82,2.5,NE,13.8,-,0.00,Rain,Light Freezing Rain,40,2013-12-20 03:53:00
9:58 PM,28.0,26.1,92,29.79,3.0,NE,15.0,-,0.00,,Overcast,40,2013-12-20 03:58:00
10:53 PM,27.0,25.0,92,29.84,4.0,NNE,11.5,-,0.00,,Overcast,30,2013-12-20 04:53:00
11:09 PM,27.0,26.1,96,29.81,3.0,NNE,11.5,-,0.01,Rain,Light Freezing Rain,20,2013-12-20 05:09:00
11:12 PM,27.0,26.1,96,29.82,2.5,North,11.5,-,0.01,Snow,Light Snow,10,2013-12-20 05:12:00
11:53 PM,27.0,26.1,96,29.84,2.5,NNE,12.7,-,0.01,,Overcast,20,2013-12-20 05:53:00